Stations météo

réclame
Mon MeteoGroup
Nottingham/Watnall, Grande-Bretagne (3354): Température de l'air & dewpoint: 14.09.2018 17:00:00 - 20.09.2018 17:00:00 (BST)Nottingham/Watnall, Grande-Bretagne (3354): Température de l'air -20cm & Température de l'air -100cm: 14.09.2018 17:00:00 - 20.09.2018 17:00:00 (BST)Nottingham/Watnall, Grande-Bretagne (3354): Vitesse du vent & gusts: 14.09.2018 17:00:00 - 20.09.2018 17:00:00 (BST)Nottingham/Watnall, Grande-Bretagne (3354): Direction du vent: 14.09.2018 17:00:00 - 20.09.2018 17:00:00 (BST)Nottingham/Watnall, Grande-Bretagne (3354): reduced air pressure: 14.09.2018 17:00:00 - 20.09.2018 17:00:00 (BST)Nottingham/Watnall, Grande-Bretagne (3354): visibility: 14.09.2018 17:00:00 - 20.09.2018 17:00:00 (BST)Nottingham/Watnall, Grande-Bretagne (3354): Ensoleillement: 14.09.2018 17:00:00 - 20.09.2018 17:00:00 (BST)Nottingham/Watnall, Grande-Bretagne (3354): Quantités de précipitations: 14.09.2018 17:00:00 - 20.09.2018 17:00:00 (BST)
Date & Time tt [°C] td [°C] tt -20cm [°C] tt -100cm [°C] ff [km/h] ff [knt] fx [km/h] fx [knt] dd ppp [hPa] vv [km] sd [min] rr [mm]
20.09.2018 17:00:00 17,7 14,8 - - 28 15 59 32 SSW 1001,0 18 0 0,0
20.09.2018 16:00:00 16,8 15,7 - - 22 12 46 25 SSW 1002,3 13 0 0,2
20.09.2018 15:00:00 13,5 13,3 - - 13 7 - - SE 1004,3 5 0 2,4
20.09.2018 14:00:00 12,6 12,2 - - 13 7 - - ESE 1006,3 2,6 0 2,0
20.09.2018 13:00:00 12,4 11,3 - - 11 6 - - SE 1008,1 5 0 1,8
20.09.2018 12:00:00 12,9 10,4 - - 5 3 - - S 1009,5 27 0 0,0
20.09.2018 11:00:00 12,3 10,6 - - 5 3 - - SSW 1010,5 27 0 0,0
20.09.2018 10:00:00 11,9 11,0 15,7 15,7 8 4 - - SSW 1010,7 17 0 0,0
20.09.2018 09:00:00 11,2 11,0 - - 8 4 - - SSW 1010,8 13 0 0,0
20.09.2018 08:00:00 10,5 10,2 - - 8 4 - - SSW 1011,0 7 0 0,4
20.09.2018 07:00:00 10,1 9,7 - - 5 3 - - SW 1010,7 9 0 0,8
20.09.2018 06:00:00 10,3 9,8 - - 8 4 - - SW 1011,2 8 0 1,6
20.09.2018 05:00:00 10,4 9,8 - - 8 4 - - SW 1011,3 10 0 0,6
20.09.2018 04:00:00 10,6 9,5 - - 9 5 - - SW 1011,6 9 0 1,2
20.09.2018 03:00:00 11,2 9,0 - - 13 7 - - SW 1011,9 14 0 0,2
20.09.2018 02:00:00 12,6 7,4 - - 13 7 - - SW 1011,8 20 0 0,0
20.09.2018 01:00:00 12,9 7,3 - - 21 11 - - SW 1011,6 24 - 0,0
20.09.2018 00:00:00 13,2 7,1 - - 21 11 - - SW 1011,7 20 0 0,0
19.09.2018 23:00:00 13,3 6,6 - - 18 10 - - SW 1011,6 19 0 0,0
19.09.2018 22:00:00 13,1 5,8 - - 24 13 - - WSW 1011,3 18 0 0,0
19.09.2018 21:00:00 13,5 5,3 - - 21 11 48 26 WSW 1010,9 27 0 0,0
19.09.2018 20:00:00 14,1 5,5 - - 18 10 - - WSW 1010,7 20 0 0,0
19.09.2018 19:00:00 14,6 4,7 - - 22 12 - - WSW 1009,6 19 24 0,0
19.09.2018 18:00:00 16,5 4,6 - - 22 12 57 31 W 1008,8 30 42 0,0
19.09.2018 17:00:00 17,7 10,1 - - 26 14 57 31 W 1007,3 12 54 0,0
19.09.2018 16:00:00 17,5 14,2 - - 26 14 57 31 WSW 1006,2 13 6 1,4
19.09.2018 15:00:00 18,0 13,3 - - 41 22 80 43 SW 1005,0 4,2 6 0,0
19.09.2018 14:00:00 20,0 11,0 - - 35 19 68 37 SW 1004,3 23 0 0,0
19.09.2018 13:00:00 20,3 11,2 - - 31 17 67 36 SW 1004,2 26 24 0,0
19.09.2018 12:00:00 19,8 11,8 - - 37 20 72 39 SSW 1004,4 22 18 0,0
19.09.2018 11:00:00 18,2 12,5 - - 24 13 63 34 SSW 1005,5 22 12 0,0
19.09.2018 10:00:00 17,1 12,4 16,2 15,7 22 12 50 27 SSW 1006,2 15 24 0,0
19.09.2018 09:00:00 16,1 13,0 - - 22 12 - - SSW 1007,0 19 42 0,0
19.09.2018 08:00:00 14,8 13,1 - - 16 9 - - SSW 1007,3 15 30 0,0
19.09.2018 07:00:00 14,4 13,1 - - 16 9 - - SSW 1008,1 20 0 0,0
19.09.2018 06:00:00 14,5 13,4 - - 15 8 - - SSW 1007,9 16 0 0,0
19.09.2018 05:00:00 14,7 13,8 - - 9 5 - - SSW 1008,2 15 0 0,0
19.09.2018 04:00:00 14,8 13,5 - - 11 6 - - SSW 1008,5 21 0 0,0
19.09.2018 03:00:00 15,2 13,9 - - 15 8 - - SW 1008,5 15 0 0,0
19.09.2018 02:00:00 15,3 14,4 - - 11 6 - - SW 1008,5 13 0 2,2
19.09.2018 01:00:00 16,9 13,8 - - 18 10 - - SW 1008,4 14 - 0,0
19.09.2018 00:00:00 16,8 13,9 - - 22 12 55 30 SW 1008,0 19 0 0,0
18.09.2018 23:00:00 18,0 13,5 - - 22 12 48 26 SSW 1007,6 28 0 0,0
18.09.2018 22:00:00 18,0 13,8 - - 18 10 - - SSW 1007,3 23 0 0,0
18.09.2018 21:00:00 17,8 13,7 - - 18 10 - - SSW 1007,4 30 0 0,0
18.09.2018 20:00:00 18,3 12,5 - - 18 10 - - SSW 1007,3 29 0 0,0
18.09.2018 19:00:00 19,1 12,4 - - 18 10 48 26 SW 1006,9 24 6 0,0
18.09.2018 18:00:00 19,9 12,9 - - 29 16 50 27 SW 1006,7 26 18 0,0
18.09.2018 17:00:00 20,0 13,4 - - 28 15 50 27 SW 1006,5 28 0 0,0
18.09.2018 16:00:00 20,4 13,3 - - 26 14 57 31 SW 1006,2 30 0 0,0
18.09.2018 15:00:00 20,2 12,9 - - 29 16 52 28 WSW 1006,0 24 6 0,0
18.09.2018 14:00:00 19,8 12,3 - - 26 14 55 30 SW 1005,5 35 24 0,0
18.09.2018 13:00:00 20,2 11,1 - - 31 17 57 31 WSW 1004,6 16 60 0,0
18.09.2018 12:00:00 19,5 12,0 - - 29 16 54 29 SW 1003,8 30 18 0,0
18.09.2018 11:00:00 18,2 14,1 - - 29 16 61 33 SW 1002,7 27 0 0,0
18.09.2018 10:00:00 17,9 14,7 16,2 15,7 26 14 52 28 SW 1001,3 45 0 0,0
18.09.2018 09:00:00 17,9 14,9 - - 29 16 59 32 SSW 1000,3 28 0 0,0
18.09.2018 08:00:00 17,9 14,7 - - 24 13 54 29 SSW 999,4 28 0 0,0
18.09.2018 07:00:00 18,3 15,0 - - 21 11 50 27 SSW 999,0 23 0 0,0
18.09.2018 06:00:00 17,9 14,7 - - 18 10 - - S 999,0 28 0 0,0
18.09.2018 05:00:00 16,7 13,7 - - 18 10 - - S 1000,0 24 0 0,0
18.09.2018 04:00:00 15,4 11,4 - - 13 7 - - S 1001,5 45 0 0,0
18.09.2018 03:00:00 15,9 10,7 - - 16 9 - - S 1002,7 45 0 0,0
18.09.2018 02:00:00 16,3 9,1 - - 15 8 - - S 1003,4 45 0 0,0
18.09.2018 01:00:00 16,3 9,2 - - 15 8 - - S 1004,2 40 - 0,0
18.09.2018 00:00:00 15,5 9,3 - - 9 5 - - SSE 1005,2 40 0 0,0
17.09.2018 23:00:00 16,9 9,2 - - 13 7 - - S 1006,2 35 0 0,0
17.09.2018 22:00:00 18,0 8,2 - - 13 7 - - S 1007,0 50 0 0,0
17.09.2018 21:00:00 18,4 6,5 - - 9 5 - - SSW 1007,4 45 0 0,0
17.09.2018 20:00:00 19,7 8,6 - - 13 7 - - S 1007,5 50 0 0,0
17.09.2018 19:00:00 20,1 14,3 - - 11 6 - - S 1007,7 35 30 0,0
17.09.2018 18:00:00 21,2 15,0 - - 11 6 - - SSW 1008,3 27 36 0,0
17.09.2018 17:00:00 21,7 15,4 - - 18 10 - - SW 1009,1 40 18 0,0
17.09.2018 16:00:00 20,9 15,5 - - 21 11 46 25 SSW 1010,1 45 0 0,0
17.09.2018 15:00:00 21,0 15,7 - - 21 11 - - SSW 1010,7 45 18 0,0
17.09.2018 14:00:00 21,2 16,4 - - 16 9 - - SSW 1011,4 50 6 0,0
17.09.2018 13:00:00 20,4 15,8 - - 22 12 - - SSW 1012,1 40 18 0,0
17.09.2018 12:00:00 20,4 15,7 - - 18 10 - - SSW 1012,4 35 24 0,0
17.09.2018 11:00:00 18,8 16,2 - - 18 10 - - SSW 1013,0 35 18 0,0
17.09.2018 10:00:00 18,3 17,1 16,0 15,7 16 9 - - SSW 1013,2 28 18 0,2
17.09.2018 09:00:00 16,8 16,7 - - 13 7 - - S 1013,5 10 6 0,0
17.09.2018 08:00:00 14,8 14,6 - - 5 3 - - SSE 1014,1 2,4 0 0,2
17.09.2018 07:00:00 14,3 13,9 - - 2 1 - - S 1014,0 5 0 0,0
17.09.2018 06:00:00 14,2 13,7 - - 5 3 - - WSW 1014,4 2,1 0 0,2
17.09.2018 05:00:00 14,4 13,6 - - 8 4 - - WSW 1014,8 10 0 0,0
17.09.2018 04:00:00 14,6 13,6 - - 8 4 - - SW 1015,0 30 0 0,0
17.09.2018 03:00:00 14,4 13,5 - - 8 4 - - WSW 1015,2 23 0 0,0
17.09.2018 02:00:00 15,3 14,2 - - 11 6 - - WSW 1015,5 25 0 0,0
17.09.2018 01:00:00 16,5 15,5 - - 9 5 - - SW 1015,7 11 - -
17.09.2018 00:00:00 16,9 15,8 - - 11 6 - - SW 1015,5 12 0 0,0
16.09.2018 23:00:00 17,1 16,0 - - 13 7 - - SW 1015,3 14 0 0,0
16.09.2018 22:00:00 17,1 16,3 - - 15 8 - - SW 1015,3 8 0 0,0
16.09.2018 21:00:00 17,1 16,2 - - 13 7 - - SW 1015,4 10 0 0,0
16.09.2018 20:00:00 17,7 15,8 - - 15 8 - - SW 1015,0 10 0 0,0
16.09.2018 19:00:00 18,7 15,2 - - 15 8 - - SW 1014,7 40 0 0,0
16.09.2018 18:00:00 19,3 15,0 - - 21 11 - - SW 1014,2 40 0 0,0
16.09.2018 17:00:00 19,8 15,1 - - 18 10 - - SW 1013,9 45 0 0,0
16.09.2018 16:00:00 20,1 14,7 - - 18 10 - - SW 1014,0 28 18 0,0
16.09.2018 15:00:00 19,1 15,2 - - 22 12 46 25 SW 1014,2 26 0 0,0
16.09.2018 14:00:00 17,8 15,4 - - 21 11 - - SW 1014,6 27 0 0,0
16.09.2018 13:00:00 19,1 13,7 - - 24 13 - - SW 1014,4 24 12 0,0
16.09.2018 12:00:00 18,3 13,2 - - 18 10 - - SW 1014,3 30 12 0,0
16.09.2018 11:00:00 16,8 11,8 - - 26 14 - - SW 1015,0 24 36 0,0
16.09.2018 10:00:00 15,1 11,1 15,5 15,7 18 10 - - SSW 1015,2 19 0 0,0
16.09.2018 09:00:00 14,4 10,8 - - 16 9 - - SSW 1015,5 22 0 0,0
16.09.2018 08:00:00 13,2 9,9 - - 15 8 - - SSW 1015,6 40 0 0,0
16.09.2018 07:00:00 12,6 9,3 - - 13 7 - - SSW 1015,8 40 0 0,0
16.09.2018 06:00:00 12,7 8,9 - - 13 7 - - SSW 1016,0 45 0 0,0
16.09.2018 05:00:00 12,7 9,3 - - 13 7 - - SSW 1016,3 45 0 0,0
16.09.2018 04:00:00 13,0 10,0 - - 18 10 - - SW 1016,8 40 0 0,0
16.09.2018 03:00:00 12,6 10,5 - - 11 6 - - SSW 1017,7 25 0 0,0
16.09.2018 02:00:00 13,1 10,0 - - 11 6 - - SSW 1018,7 30 0 0,0
16.09.2018 01:00:00 13,2 9,2 - - 9 5 - - SSW 1019,7 35 - 0,0
16.09.2018 00:00:00 13,5 9,6 - - 9 5 - - SSW 1020,3 28 0 0,0
15.09.2018 23:00:00 13,8 9,7 - - 8 4 - - SSW 1020,9 27 0 0,0
15.09.2018 22:00:00 14,7 9,8 - - 9 5 - - SW 1021,1 30 0 0,0
15.09.2018 21:00:00 14,7 9,7 - - 8 4 - - SSW 1021,5 30 0 0,0
15.09.2018 20:00:00 14,6 11,2 - - 4 2 - - WSW 1021,4 30 0 0,0
15.09.2018 19:00:00 15,8 11,0 - - 4 2 - - WSW 1021,3 28 0 0,0
15.09.2018 18:00:00 16,6 10,5 - - 8 4 - - SW 1021,3 40 6 -
15.09.2018 17:00:00 16,4 11,3 - - 9 5 - - W 1021,6 30 0 0,0
15.09.2018 16:00:00 16,4 10,8 - - 13 7 - - W 1021,9 21 0 0,0
15.09.2018 15:00:00 16,4 10,9 - - 16 9 - - WSW 1022,2 27 6 0,0
15.09.2018 14:00:00 16,7 11,3 - - 15 8 - - SW 1022,5 25 6 0,0
15.09.2018 13:00:00 16,1 10,6 - - 13 7 - - WSW 1022,6 23 0 0,0
15.09.2018 12:00:00 16,0 10,6 - - 15 8 - - WSW 1022,5 20 12 0,0
15.09.2018 11:00:00 15,4 10,7 - - 16 9 - - SW 1022,5 30 54 0,0
15.09.2018 10:00:00 13,8 11,2 15,2 15,7 13 7 - - WSW 1022,4 17 60 0,0
15.09.2018 09:00:00 11,4 11,1 - - 9 5 - - SSW 1022,4 22 60 0,2
15.09.2018 08:00:00 9,5 9,3 - - 2 1 - - WSW 1022,3 13 18 0,0
15.09.2018 07:00:00 8,7 8,3 - - 8 4 - - SW 1021,6 7 0 0,0
15.09.2018 06:00:00 9,2 8,9 - - 5 3 - - WSW 1021,3 10 0 0,0
15.09.2018 05:00:00 9,4 9,1 - - 5 3 - - SW 1021,2 11 0 0,0
15.09.2018 04:00:00 8,6 7,7 - - 4 2 - - WSW 1020,9 3,6 0 0,0
15.09.2018 03:00:00 10,1 9,3 - - 8 4 - - WSW 1020,4 20 0 0,0
15.09.2018 02:00:00 10,6 9,6 - - 9 5 - - W 1020,6 30 0 0,0
15.09.2018 01:00:00 11,0 9,9 - - 9 5 - - W 1020,6 40 - 0,0
15.09.2018 00:00:00 11,0 9,9 - - 11 6 - - WSW 1020,2 40 0 0,0
14.09.2018 23:00:00 11,3 10,5 - - 11 6 - - WSW 1019,8 40 0 0,0
14.09.2018 22:00:00 12,0 11,3 - - 11 6 - - WSW 1019,3 16 0 0,0
14.09.2018 21:00:00 12,8 11,6 - - 13 7 - - WSW 1019,0 23 0 0,6
14.09.2018 20:00:00 13,4 12,2 - - 11 6 - - WSW 1018,3 12 0 0,4
14.09.2018 19:00:00 13,9 11,4 - - 16 9 - - W 1017,6 17 0 0,0
14.09.2018 18:00:00 14,3 11,5 - - 18 10 - - WSW 1017,6 4,2 6 0,0
14.09.2018 17:00:00 14,2 11,7 - - 15 8 - - WSW 1017,4 40 0 0,2

tt = Température de l'air
td = dewpoint
tt -20cm = Température de l'air -20cm
tt -100cm = Température de l'air -100cm
ff = Vitesse du vent
fx = gusts
dd = Direction du vent
ppp = reduced air pressure
vv = visibility
sd = Ensoleillement
rr = Quantités de précipitations

stations d'obs. à proximité